JA06BK RJTI-RJAF

Flight info

Callsign JA06BK
Flight time 1h 5m
Altitude 8000
Route RJTI/ARIAKE/HINODE/HACHIOUJI/OOTUKI/CHINO/RJAF
Aircraft EC45/L-SDG/L

Departure

Time 2026-05-05 13:56
Airport Tokyo Heliport (RJTI)

Arrival

Time 2026-05-05 15:01
Airport Shinshu-Matsumoto Airport (RJAF)
Time Latitude Longitude Altitude Speed Heading
2026-05-05 13:50 35.63730 139.83774 23 ft 0 kts 159°
2026-05-05 13:53 35.63732 139.83775 126 ft 5 kts 76°
2026-05-05 13:53 35.63745 139.83820 29 ft 5 kts 113°
2026-05-05 13:53 35.63706 139.83837 28 ft 6 kts 178°
2026-05-05 13:53 35.63664 139.83835 28 ft 6 kts 176°
2026-05-05 13:54 35.63637 139.83857 32 ft 6 kts 99°
2026-05-05 13:54 35.63632 139.83929 33 ft 7 kts 144°
2026-05-05 13:54 35.63600 139.83946 29 ft 4 kts 180°
2026-05-05 13:54 35.63607 139.83946 54 ft 1 kts 182°
2026-05-05 13:55 35.63465 139.83928 120 ft 43 kts 177°
2026-05-05 13:55 35.63257 139.83499 232 ft 77 kts 264°
2026-05-05 13:55 35.63329 139.82775 326 ft 94 kts 281°
2026-05-05 13:55 35.63573 139.82006 482 ft 97 kts 290°
2026-05-05 13:56 35.63847 139.81259 655 ft 99 kts 289°
2026-05-05 13:56 35.64138 139.80413 749 ft 108 kts 287°
2026-05-05 13:56 35.64411 139.79561 850 ft 107 kts 284°
2026-05-05 13:56 35.64673 139.78698 901 ft 107 kts 283°
2026-05-05 13:57 35.64880 139.77817 903 ft 110 kts 278°
2026-05-05 13:57 35.65049 139.76898 915 ft 110 kts 276°
2026-05-05 13:57 35.65209 139.75973 925 ft 110 kts 277°
2026-05-05 13:57 35.65369 139.75070 940 ft 110 kts 277°
2026-05-05 13:58 35.65530 139.74141 968 ft 111 kts 277°
2026-05-05 13:58 35.65710 139.73202 990 ft 114 kts 280°
2026-05-05 13:58 35.65926 139.72283 1012 ft 112 kts 281°
2026-05-05 13:58 35.66153 139.71369 1044 ft 109 kts 281°
2026-05-05 13:59 35.66608 139.69594 1090 ft 112 kts 281°
2026-05-05 13:59 35.66891 139.68730 1064 ft 110 kts 292°
2026-05-05 14:00 35.67593 139.67083 1124 ft 107 kts 292°
2026-05-05 14:00 35.67825 139.66543 1146 ft 108 kts 292°
2026-05-05 14:00 35.68315 139.65388 1167 ft 121 kts 291°
2026-05-05 14:00 35.68699 139.64499 1203 ft 117 kts 291°
2026-05-05 14:01 35.69090 139.63613 1221 ft 118 kts 292°
2026-05-05 14:01 35.69474 139.62734 1244 ft 116 kts 293°
2026-05-05 14:01 35.69716 139.62169 1268 ft 117 kts 292°
2026-05-05 14:01 35.70244 139.60943 1288 ft 122 kts 293°
2026-05-05 14:02 35.70626 139.60044 1324 ft 120 kts 292°
2026-05-05 14:02 35.70864 139.59489 1326 ft 120 kts 292°
2026-05-05 14:02 35.71365 139.58312 1369 ft 120 kts 291°
2026-05-05 14:02 35.71605 139.57696 1374 ft 120 kts 289°
2026-05-05 14:03 35.71940 139.56820 1452 ft 112 kts 284°
2026-05-05 14:03 35.72332 139.55979 1460 ft 118 kts 284°
2026-05-05 14:03 35.72547 139.55062 1489 ft 110 kts 260°
2026-05-05 14:03 35.72629 139.54115 1520 ft 109 kts 261°
2026-05-05 14:04 35.72742 139.53198 1547 ft 108 kts 262°
2026-05-05 14:04 35.72885 139.52281 1576 ft 110 kts 264°
2026-05-05 14:04 35.73053 139.51358 1602 ft 112 kts 267°
2026-05-05 14:04 35.73243 139.50433 1630 ft 111 kts 268°
2026-05-05 14:05 35.73448 139.49500 1599 ft 116 kts 274°
2026-05-05 14:05 35.73678 139.48523 1701 ft 116 kts 274°
2026-05-05 14:05 35.73905 139.47589 1731 ft 116 kts 279°
2026-05-05 14:05 35.74154 139.46615 1808 ft 120 kts 277°
2026-05-05 14:06 35.74409 139.45635 1878 ft 121 kts 279°
2026-05-05 14:06 35.74671 139.44646 1956 ft 122 kts 278°
2026-05-05 14:06 35.74935 139.43662 2031 ft 122 kts 278°
2026-05-05 14:06 35.75204 139.42669 2095 ft 123 kts 280°
2026-05-05 14:07 35.75481 139.41660 2184 ft 123 kts 278°
2026-05-05 14:07 35.75747 139.40686 2248 ft 120 kts 281°
2026-05-05 14:07 35.76014 139.39714 2337 ft 118 kts 279°
2026-05-05 14:07 35.76279 139.38749 2394 ft 119 kts 280°
2026-05-05 14:08 35.76540 139.37801 2476 ft 119 kts 279°
2026-05-05 14:08 35.76803 139.36838 2550 ft 118 kts 280°
2026-05-05 14:08 35.77062 139.35896 2620 ft 120 kts 281°
2026-05-05 14:08 35.77330 139.34922 2711 ft 119 kts 279°
2026-05-05 14:09 35.77592 139.33961 2789 ft 117 kts 280°
2026-05-05 14:09 35.77853 139.33001 2857 ft 119 kts 280°
2026-05-05 14:09 35.78115 139.32038 2934 ft 119 kts 281°
2026-05-05 14:09 35.78381 139.31069 3007 ft 120 kts 280°
2026-05-05 14:10 35.78650 139.30088 3077 ft 123 kts 281°
2026-05-05 14:10 35.78921 139.29102 3156 ft 122 kts 280°
2026-05-05 14:10 35.79192 139.28116 3229 ft 121 kts 280°
2026-05-05 14:10 35.79463 139.27129 3307 ft 122 kts 280°
2026-05-05 14:11 35.79735 139.26141 3375 ft 122 kts 281°
2026-05-05 14:11 35.80013 139.25141 3457 ft 123 kts 281°
2026-05-05 14:11 35.80286 139.24152 3541 ft 122 kts 280°
2026-05-05 14:11 35.80561 139.23149 3602 ft 124 kts 281°
2026-05-05 14:12 35.80837 139.22139 3678 ft 125 kts 280°
2026-05-05 14:12 35.81116 139.21117 3758 ft 126 kts 281°
2026-05-05 14:12 35.81393 139.20105 3837 ft 123 kts 281°
2026-05-05 14:12 35.81664 139.19112 3924 ft 121 kts 281°
2026-05-05 14:13 35.81924 139.18161 3993 ft 118 kts 281°
2026-05-05 14:13 35.82152 139.17326 4063 ft 118 kts 280°
2026-05-05 14:13 35.82416 139.16364 4136 ft 119 kts 280°
2026-05-05 14:13 35.82679 139.15404 4218 ft 118 kts 279°
2026-05-05 14:14 35.82940 139.14446 4294 ft 118 kts 280°
2026-05-05 14:14 35.83197 139.13488 4375 ft 117 kts 279°
2026-05-05 14:14 35.83453 139.12545 4457 ft 119 kts 281°
2026-05-05 14:14 35.83702 139.11640 4565 ft 118 kts 279°
2026-05-05 14:15 35.83965 139.10684 4663 ft 118 kts 279°
2026-05-05 14:15 35.84225 139.09725 4764 ft 118 kts 279°
2026-05-05 14:15 35.84488 139.08763 4855 ft 119 kts 280°
2026-05-05 14:15 35.84768 139.07737 4951 ft 133 kts 278°
2026-05-05 14:16 35.85055 139.06687 5090 ft 127 kts 278°
2026-05-05 14:16 35.85343 139.05641 5230 ft 129 kts 276°
2026-05-05 14:16 35.85622 139.04611 5311 ft 126 kts 278°
2026-05-05 14:16 35.85899 139.03604 5499 ft 116 kts 275°
2026-05-05 14:17 35.86142 139.02728 5650 ft 106 kts 276°
2026-05-05 14:17 35.86373 139.01873 5851 ft 105 kts 273°
2026-05-05 14:17 35.86599 139.01020 6009 ft 105 kts 276°
2026-05-05 14:17 35.86826 139.00174 6204 ft 103 kts 276°
2026-05-05 14:18 35.87054 138.99328 6349 ft 107 kts 277°
2026-05-05 14:18 35.87295 138.98471 6546 ft 104 kts 275°
2026-05-05 14:18 35.87527 138.97614 6722 ft 106 kts 275°
2026-05-05 14:18 35.87757 138.96767 6875 ft 104 kts 277°
2026-05-05 14:19 35.87986 138.95942 7029 ft 102 kts 279°
2026-05-05 14:19 35.88216 138.95132 7206 ft 100 kts 278°
2026-05-05 14:19 35.88440 138.94325 7386 ft 100 kts 278°
2026-05-05 14:19 35.88657 138.93513 7564 ft 99 kts 278°
2026-05-05 14:20 35.88872 138.92711 7741 ft 98 kts 279°
2026-05-05 14:20 35.89088 138.91912 7924 ft 98 kts 280°
2026-05-05 14:20 35.89298 138.91131 8082 ft 93 kts 280°
2026-05-05 14:20 35.89501 138.90371 8170 ft 94 kts 279°
2026-05-05 14:21 35.89702 138.89611 8203 ft 92 kts 279°
2026-05-05 14:21 35.89901 138.88863 8216 ft 91 kts 278°
2026-05-05 14:21 35.90095 138.88124 8234 ft 90 kts 278°
2026-05-05 14:21 35.90275 138.87437 8224 ft 92 kts 281°
2026-05-05 14:22 35.90477 138.86684 8223 ft 93 kts 278°
2026-05-05 14:22 35.90680 138.85913 8244 ft 97 kts 276°
2026-05-05 14:22 35.90885 138.85126 8222 ft 96 kts 277°
2026-05-05 14:22 35.91092 138.84342 8240 ft 95 kts 277°
2026-05-05 14:23 35.91304 138.83544 8208 ft 105 kts 279°
2026-05-05 14:23 35.91549 138.82643 8214 ft 116 kts 279°
2026-05-05 14:23 35.91816 138.81655 8243 ft 121 kts 278°
2026-05-05 14:23 35.92075 138.80680 8235 ft 119 kts 278°
2026-05-05 14:24 35.92339 138.79696 8219 ft 121 kts 279°
2026-05-05 14:24 35.92605 138.78722 8218 ft 120 kts 279°
2026-05-05 14:24 35.92871 138.77756 8215 ft 121 kts 280°
2026-05-05 14:24 35.93143 138.76763 8241 ft 120 kts 279°
2026-05-05 14:25 35.93400 138.75804 8227 ft 119 kts 279°
2026-05-05 14:25 35.93664 138.74826 8220 ft 120 kts 279°
2026-05-05 14:25 35.93928 138.73855 8220 ft 119 kts 279°
2026-05-05 14:25 35.94191 138.72889 8234 ft 117 kts 278°
2026-05-05 14:26 35.94438 138.71943 8228 ft 117 kts 278°
2026-05-05 14:26 35.94692 138.70968 8216 ft 121 kts 279°
2026-05-05 14:26 35.94960 138.69980 8214 ft 122 kts 279°
2026-05-05 14:26 35.95226 138.68994 8223 ft 120 kts 279°
2026-05-05 14:27 35.95493 138.68009 8218 ft 121 kts 280°
2026-05-05 14:27 35.95758 138.67025 8234 ft 119 kts 278°
2026-05-05 14:27 35.96021 138.66044 8221 ft 121 kts 278°
2026-05-05 14:27 35.96282 138.65076 8224 ft 117 kts 279°
2026-05-05 14:28 35.96542 138.64105 8209 ft 121 kts 279°
2026-05-05 14:28 35.96800 138.63134 8215 ft 116 kts 278°
2026-05-05 14:28 35.97051 138.62189 8217 ft 118 kts 278°
2026-05-05 14:28 35.97306 138.61230 8214 ft 118 kts 279°
2026-05-05 14:29 35.97564 138.60262 8220 ft 118 kts 278°
2026-05-05 14:29 35.97820 138.59299 8217 ft 119 kts 278°
2026-05-05 14:29 35.98081 138.58319 8212 ft 121 kts 280°
2026-05-05 14:29 35.98342 138.57345 8215 ft 118 kts 278°
2026-05-05 14:30 35.98605 138.56376 8213 ft 120 kts 280°
2026-05-05 14:30 35.98781 138.55403 8212 ft 115 kts 265°
2026-05-05 14:30 35.98797 138.54405 8214 ft 117 kts 261°
2026-05-05 14:30 35.98793 138.53412 8216 ft 115 kts 261°
2026-05-05 14:31 35.98786 138.52405 8198 ft 118 kts 261°
2026-05-05 14:31 35.98779 138.51391 8213 ft 117 kts 261°
2026-05-05 14:31 35.98773 138.50399 8220 ft 117 kts 261°
2026-05-05 14:31 35.98769 138.49395 8211 ft 117 kts 261°
2026-05-05 14:32 35.98762 138.48389 8224 ft 117 kts 261°
2026-05-05 14:32 35.98753 138.47388 8208 ft 118 kts 261°
2026-05-05 14:32 35.98681 138.46390 8206 ft 115 kts 246°
2026-05-05 14:32 35.98352 138.45470 8198 ft 120 kts 236°
2026-05-05 14:33 35.97963 138.44570 8211 ft 117 kts 233°
2026-05-05 14:33 35.97472 138.43747 8190 ft 123 kts 225°
2026-05-05 14:33 35.96926 138.42927 8212 ft 123 kts 224°
2026-05-05 14:33 35.96392 138.42109 8214 ft 123 kts 224°
2026-05-05 14:34 35.95860 138.41296 8215 ft 121 kts 224°
2026-05-05 14:34 35.95323 138.40480 8206 ft 123 kts 224°
2026-05-05 14:34 35.94782 138.39656 8235 ft 123 kts 223°
2026-05-05 14:34 35.94256 138.38848 8217 ft 122 kts 224°
2026-05-05 14:35 35.93717 138.38027 8199 ft 123 kts 224°
2026-05-05 14:35 35.93187 138.37223 8216 ft 120 kts 224°
2026-05-05 14:35 35.92663 138.36417 8225 ft 120 kts 223°
2026-05-05 14:35 35.92147 138.35609 8204 ft 122 kts 228°
2026-05-05 14:36 35.91890 138.34628 8245 ft 118 kts 261°
2026-05-05 14:36 35.92093 138.33661 8224 ft 117 kts 283°
2026-05-05 14:36 35.92425 138.32757 8204 ft 116 kts 286°
2026-05-05 14:36 35.92772 138.31857 8207 ft 116 kts 286°
2026-05-05 14:37 35.93117 138.30953 8201 ft 118 kts 286°
2026-05-05 14:37 35.93461 138.30029 8203 ft 118 kts 286°
2026-05-05 14:37 35.93804 138.29108 8209 ft 118 kts 286°
2026-05-05 14:37 35.94148 138.28188 8205 ft 118 kts 286°
2026-05-05 14:38 35.94492 138.27284 8152 ft 118 kts 287°
2026-05-05 14:38 35.94959 138.26445 8076 ft 118 kts 297°
2026-05-05 14:38 35.95465 138.25658 8001 ft 118 kts 298°
2026-05-05 14:38 35.95986 138.24863 7914 ft 124 kts 300°
2026-05-05 14:39 35.96622 138.24043 7841 ft 134 kts 306°
2026-05-05 14:39 35.97275 138.23253 7770 ft 131 kts 306°
2026-05-05 14:39 35.97926 138.22461 7706 ft 131 kts 305°
2026-05-05 14:39 35.98578 138.21671 7622 ft 132 kts 306°
2026-05-05 14:40 35.99234 138.20878 7550 ft 132 kts 305°
2026-05-05 14:40 35.99891 138.20076 7438 ft 138 kts 304°
2026-05-05 14:40 36.00566 138.19189 7375 ft 142 kts 303°
2026-05-05 14:40 36.01237 138.18305 7308 ft 140 kts 303°
2026-05-05 14:41 36.01897 138.17422 7237 ft 140 kts 303°
2026-05-05 14:41 36.02548 138.16533 7157 ft 140 kts 303°
2026-05-05 14:41 36.03193 138.15647 7085 ft 141 kts 303°
2026-05-05 14:41 36.03848 138.14747 7012 ft 140 kts 303°
2026-05-05 14:42 36.04500 138.13852 6949 ft 139 kts 303°
2026-05-05 14:42 36.05150 138.12959 6869 ft 140 kts 303°
2026-05-05 14:42 36.05803 138.12060 6795 ft 140 kts 303°
2026-05-05 14:42 36.06457 138.11160 6727 ft 141 kts 302°
2026-05-05 14:43 36.07116 138.10257 6655 ft 141 kts 302°
2026-05-05 14:43 36.07774 138.09348 6576 ft 145 kts 301°
2026-05-05 14:43 36.08439 138.08338 6493 ft 150 kts 298°
2026-05-05 14:43 36.09063 138.07307 6419 ft 150 kts 297°
2026-05-05 14:44 36.09684 138.06269 6350 ft 150 kts 296°
2026-05-05 14:44 36.10313 138.05235 6273 ft 151 kts 297°
2026-05-05 14:44 36.10947 138.04205 6195 ft 150 kts 297°
2026-05-05 14:44 36.11574 138.03172 6120 ft 150 kts 297°
2026-05-05 14:45 36.12228 138.02178 6047 ft 149 kts 300°
2026-05-05 14:45 36.12889 138.01187 5968 ft 149 kts 300°
2026-05-05 14:45 36.13545 138.00199 5899 ft 149 kts 300°
2026-05-05 14:45 36.14197 137.99209 5836 ft 147 kts 297°
2026-05-05 14:46 36.14628 137.98104 5742 ft 144 kts 274°
2026-05-05 14:46 36.14824 137.96867 5668 ft 148 kts 269°
2026-05-05 14:46 36.15004 137.95630 5592 ft 146 kts 270°
2026-05-05 14:46 36.15381 137.94452 5512 ft 154 kts 296°
2026-05-05 14:47 36.16193 137.93616 5446 ft 152 kts 327°
2026-05-05 14:47 36.17219 137.93380 5366 ft 152 kts 357°
2026-05-05 14:47 36.18226 137.93716 5307 ft 148 kts 16°
2026-05-05 14:47 36.19160 137.94240 5276 ft 147 kts 20°
2026-05-05 14:48 36.20074 137.94805 5260 ft 148 kts 22°
2026-05-05 14:48 36.20994 137.95385 5259 ft 147 kts 21°
2026-05-05 14:48 36.21906 137.95961 5252 ft 149 kts 22°
2026-05-05 14:48 36.22829 137.96545 5254 ft 148 kts 21°
2026-05-05 14:49 36.23745 137.97123 5249 ft 149 kts 22°
2026-05-05 14:49 36.24660 137.97701 5260 ft 148 kts 21°
2026-05-05 14:49 36.25568 137.98270 5254 ft 146 kts 21°
2026-05-05 14:49 36.26481 137.98843 5257 ft 147 kts 21°
2026-05-05 14:50 36.27398 137.99416 5244 ft 149 kts 21°
2026-05-05 14:50 36.28321 137.99997 5281 ft 146 kts 19°
2026-05-05 14:50 36.28914 138.00362 5238 ft 145 kts 20°
2026-05-05 14:50 36.29825 138.00931 5242 ft 145 kts 21°
2026-05-05 14:51 36.30736 138.01513 5221 ft 148 kts 22°
2026-05-05 14:51 36.31647 138.02100 5245 ft 147 kts 20°
2026-05-05 14:51 36.32554 138.02675 5239 ft 148 kts 20°
2026-05-05 14:51 36.33518 138.03075 5249 ft 145 kts 359°
2026-05-05 14:52 36.34502 138.02875 5249 ft 146 kts 329°
2026-05-05 14:52 36.35283 138.02097 5248 ft 145 kts 300°
2026-05-05 14:52 36.35771 138.00995 5265 ft 145 kts 287°
2026-05-05 14:52 36.35967 137.99796 5243 ft 144 kts 259°
2026-05-05 14:53 36.35660 137.98653 5268 ft 138 kts 228°
2026-05-05 14:53 36.34934 137.97887 5255 ft 139 kts 198°
2026-05-05 14:53 36.34004 137.97672 5255 ft 136 kts 174°
2026-05-05 14:53 36.33110 137.97514 5264 ft 128 kts 193°
2026-05-05 14:54 36.32429 137.96810 5251 ft 130 kts 227°
2026-05-05 14:54 36.32187 137.95723 5250 ft 135 kts 262°
2026-05-05 14:54 36.32479 137.94624 5268 ft 136 kts 293°
2026-05-05 14:54 36.33081 137.93724 5247 ft 136 kts 304°
2026-05-05 14:55 36.33664 137.92821 5256 ft 131 kts 288°
2026-05-05 14:55 36.33802 137.91827 5345 ft 104 kts 249°
2026-05-05 14:55 36.33435 137.91068 5228 ft 106 kts 208°
2026-05-05 14:55 36.32776 137.90831 5152 ft 100 kts 169°
2026-05-05 14:56 36.32063 137.90933 5056 ft 104 kts 164°
2026-05-05 14:56 36.31337 137.91051 4955 ft 107 kts 165°
2026-05-05 14:56 36.30603 137.91152 4842 ft 105 kts 166°
2026-05-05 14:56 36.29875 137.91237 4704 ft 106 kts 167°
2026-05-05 14:57 36.29144 137.91310 4590 ft 106 kts 167°
2026-05-05 14:57 36.28411 137.91374 4457 ft 106 kts 168°
2026-05-05 14:57 36.27595 137.91434 4216 ft 135 kts 171°
2026-05-05 14:57 36.26644 137.91484 4263 ft 127 kts 169°
2026-05-05 14:58 36.25795 137.91531 4139 ft 125 kts 170°
2026-05-05 14:58 36.24918 137.91579 4046 ft 126 kts 170°
2026-05-05 14:58 36.24038 137.91624 3940 ft 127 kts 171°
2026-05-05 14:58 36.23154 137.91666 3836 ft 128 kts 171°
2026-05-05 14:59 36.22266 137.91706 3738 ft 128 kts 171°
2026-05-05 14:59 36.21375 137.91746 3657 ft 125 kts 170°
2026-05-05 14:59 36.20610 137.91782 3466 ft 94 kts 167°
2026-05-05 14:59 36.20047 137.91809 3247 ft 74 kts 169°
2026-05-05 15:00 36.19528 137.91833 3121 ft 71 kts 170°
2026-05-05 15:00 36.19204 137.91847 3032 ft 71 kts 171°
2026-05-05 15:00 36.18559 137.91882 2934 ft 67 kts 166°
2026-05-05 15:00 36.18098 137.91968 2760 ft 68 kts 162°
2026-05-05 15:01 36.17653 137.92062 2596 ft 62 kts 162°
2026-05-05 15:01 36.17292 137.92140 2365 ft 43 kts 168°
2026-05-05 15:01 36.17019 137.92196 2308 ft 39 kts 168°
2026-05-05 15:01 36.16769 137.92245 2225 ft 29 kts 172°
2026-05-05 15:02 36.16618 137.92270 2181 ft 15 kts 166°
2026-05-05 15:02 36.16569 137.92312 2173 ft 9 kts 90°
2026-05-05 15:02 36.16578 137.92402 2174 ft 12 kts 76°
2026-05-05 15:02 36.16591 137.92478 2171 ft 8 kts 64°
2026-05-05 15:03 36.16616 137.92503 2163 ft 1 kts 163°
2026-05-05 15:03 36.16615 137.92504 2161 ft 0 kts 171°